This is the latest recevied weather packets stored in our database for station/object KC3QJO. If no packets are shown the sender has not sent any weather packets the latest 10 day(s).
| Time | Temp. | Humidity | Pressure | Rain* | Wind** | Luminosity | Snow |
|---|---|---|---|---|---|---|---|
| 1777986957 | 17.78° C | 67% | 1010.4 hPa | 0 mm | - | 443 W/m² | - |
| 1777986351 | 17.78° C | 67% | 1010.2 hPa | 0 mm | - | 445 W/m² | - |
| 1777986062 | 17.22° C | 69% | 1010.2 hPa | 0 mm | - | 438 W/m² | - |
| 1777985752 | 16.67° C | 68% | 1010.2 hPa | 0 mm | - | 427 W/m² | - |
| 1777984851 | 16.11° C | 71% | 1010.1 hPa | 0 mm | - | 390 W/m² | - |
| 1777982155 | 14.44° C | 77% | 1009.9 hPa | 0 mm | - | 206 W/m² | - |
| 1777980352 | 13.33° C | 80% | 1009.7 hPa | 0 mm | - | 185 W/m² | - |
| 1777977656 | 11.67° C | 84% | 1009.5 hPa | 0 mm | - | 53 W/m² | - |
| 1777976152 | 11.67° C | 82% | 1009.4 hPa | 0.25 mm | - | 9 W/m² | - |
| 1777974955 | 12.22° C | 81% | 1009 hPa | 0.76 mm | - | 0 W/m² | - |
| 1777974051 | 12.22° C | 83% | 1009 hPa | 1.02 mm | - | 0 W/m² | - |
| 1777973151 | 12.22° C | 80% | 1008.8 hPa | 0.76 mm | - | 0 W/m² | - |
| 1777970150 | 13.33° C | 64% | 1009.6 hPa | 0 mm | - | 0 W/m² | - |
| 1777968651 | 13.89° C | 61% | 1008.9 hPa | 0 mm | - | 0 W/m² | - |
| 1777966851 | 14.44° C | 60% | 1008.9 hPa | 0 mm | - | 0 W/m² | - |
| 1777964750 | 14.44° C | 58% | 1008.9 hPa | 0 mm | - | 0 W/m² | - |
| 1777963851 | 14.44° C | 58% | 1008.9 hPa | 0 mm | - | 0 W/m² | - |
| 1777963251 | 14.44° C | 58% | 1008.9 hPa | 0 mm | - | 0 W/m² | - |
| 1777962952 | 14.44° C | 58% | 1009.1 hPa | 0 mm | - | 0 W/m² | - |
| 1777960856 | 14.44° C | 56% | 1009.2 hPa | 0 mm | - | 0 W/m² | - |
| 1777960252 | 15° C | 55% | 1009.1 hPa | 0 mm | - | 0 W/m² | - |
| 1777959976 | 15° C | 55% | 1009.1 hPa | 0 mm | - | 0 W/m² | - |
| 1777959652 | 15° C | 55% | 1009.1 hPa | 0 mm | - | 0 W/m² | - |
| 1777959058 | 15° C | 54% | 1009.1 hPa | 0 mm | - | 0 W/m² | - |
| 1777958751 | 15° C | 54% | 1009.1 hPa | 0 mm | - | 0 W/m² | - |
* Rain latest hour (hover to see other rain measurements)
** Current wind speed in m/s (hover to see current wind gust speed)